Overview Statistics Trail Chart Weather Telemetry Raw packets
 

This is the latest recevied weather packets stored in our database for station/object K0SNA. If no packets are shown the sender has not sent any weather packets the latest 10 day(s).

<< 3 4 5 6 7 8 9 >>
Time Temp. Humidity Pressure Rain* Wind** Luminosity Snow
1788542977 27.78° C 78% 1012.4 hPa 0 mm - 583 W/m² -
1788542672 27.78° C 78% 1012.3 hPa 0 mm - 558 W/m² -
1788542367 27.78° C 79% 1012.4 hPa 0 mm - 554 W/m² -
1788542062 27.78° C 79% 1012.4 hPa 0 mm - 562 W/m² -
1788541758 27.78° C 79% 1012.2 hPa 0 mm - 564 W/m² -
1788541453 27.78° C 79% 1012.5 hPa 0 mm - 556 W/m² -
1788541148 27.78° C 79% 1012.2 hPa 0 mm - 550 W/m² -
1788540848 27.78° C 79% 1012.3 hPa 0 mm - 551 W/m² -
1788540547 28.33° C 78% 1012.3 hPa 0 mm - 536 W/m² -
1788540247 28.33° C 78% 1012.4 hPa 0 mm - 529 W/m² -
1788539943 28.89° C 77% 1012 hPa 0 mm - 520 W/m² -
1788539643 28.89° C 77% 1012 hPa 0 mm - 525 W/m² -
1788539342 28.89° C 77% 1012.1 hPa 0 mm - 532 W/m² -
1788539038 29.44° C 75% 1012.1 hPa 0 mm - 504 W/m² -
1788538733 30° C 74% 1011.9 hPa 0 mm - 501 W/m² -
1788538428 30.56° C 73% 1011.9 hPa 0 mm - 506 W/m² -
1788538124 30.56° C 72% 1012 hPa 0 mm - 488 W/m² -
1788537819 30° C 72% 1011.7 hPa 0 mm - 478 W/m² -
1788537514 30° C 72% 1011.8 hPa 0 mm - 473 W/m² -
1788537208 29.44° C 74% 1011.8 hPa 0 mm - 462 W/m² -
1788536907 29.44° C 75% 1011.7 hPa 0 mm - 455 W/m² -
1788536601 28.89° C 77% 1011.8 hPa 0 mm - 446 W/m² -
1788536297 28.89° C 76% 1011.6 hPa 0 mm - 435 W/m² -
1788535992 29.44° C 75% 1011.5 hPa 0 mm - 427 W/m² -
1788535689 29.44° C 74% 1011.6 hPa 0 mm - 415 W/m² -

* Rain latest hour (hover to see other rain measurements)
** Current wind speed in m/s (hover to see current wind gust speed)